map of ISM home
ISM - Airport
Location
City:  Orlando, Florida, United States
Name:Kissimmee Gateway Airport
ICAO:KISM
IATA:ISM
FAA LID:ISM

Details
Type:Airport (Airfield)
Use:Public/Civil
Latitude:2817'23"N (28.289806)
Longitude:8126'13"W (-81.437082)
Datum:WGS 1984
Elevation:82 ft (25 m)
Variation:6.30W (WMM2015 magnetic declination)
-0.09 annual change
Runways:2
Longest:6001 × 100 ft (1829 × 30.5 m), paved

Time
Time Zone:UTC-5 (DST-4)
Local Time:

Weather
METAR:KISM 171311Z 05003KT 8SM FEW002 15/13 A3026 RMK AO2
TAF:KISM 171126Z 1712/1812 VRB04KT P6SM SCT250
FM171600 14007KT P6SM SCT040 SCT250
FM180000 10003KT P6SM FEW040 SCT250
TEMPO 1809/1812 3SM BR SCT004

Related Locations
Nearby:
Farthest:USL: 11522 mi / 18543 km
Useless Loop, WA, AU

Find:

   beyond  
but within

Other Information
Maps:
NOTAMs:
Links:
Sources:

  
flag of United States
flag of Florida
  

Airport Diagram

Airport diagram for ISM

Airport diagram PDF

Sectional Chart

Flight Planning
at skyvector.com

Satellite Image

Google Maps Satellite view

 

Copyright © 2004-2017 Karl L. Swartz. All rights reserved.
The Great Circle Mapper name and logo are trademarks of the Great Circle Mapper.
All other trademarks mentioned herein belong to their respective owners.
Please see credits for attibutions and further copyright information.

  Follow gcmap on Facebook Follow gcmap on Twitter Follow gcmap on Google+ GCmap on LinkedIn

hCard Microformat

Geo Microformat